DECAYED

STARLINK-1644, 46532 (Decayed)

Orbit data source: Space-Track

STARLINK-1644, 46532 was a payload satellite owned by SpaceX/Seattle (US) in LEO that was launched on Tue, 06 Oct 2020 UTC via an FALCON 9 launch vehicle from the Air Force Eastern Test Range (AFETR). Payload-class satellites include a variety of spacecraft equipped with specific instruments for various scientific and technological missions. These include communications satellites like Starlink; space stations such as the ISS; scientific satellites like the Hubble; Earth observation satellites from companies like Planet Labs, Umbra, and HawkEye 360; GPS; miniature CubeSats for education and research; and military/defense satellites.

Not visible in the next 10 days
Identifier
46532, 2020-070A
Orbit
Decayed
Country
Flag of USUS
Related business
Manufacturer
SpaceX/Seattle
Mission
Decayed Commercial Communications
Bus & Motor
STARLINK, Unknown motor
Mass
260 kg wet, ~248 kg dry
Launch date (UTC)
2020-10-06 (5 years ago)
Launch vehicle
FALCON 9
Launch site
Air Force Eastern Test Range (AFETR)
Object type
Payload
Rocket body
Debris
Shape & HBR
Box + 1 Pan, 10.1 m
Radar Cross Section
13.562 m², Large (>1 m²)

Expand to show TLE details & history
Last TLE update: 9 months ago

TLE from 9 months ago
0 STARLINK-1644
1 46532U 20070A   25043.56470677  .13939950  12416-4  99040-3 0  9997
2 46532  53.0251  82.5848 0003715  40.3163  98.2363 16.40208774241351
Epoch: 2025-02-12T13:33Z
TLE epoch observation values (Epoch: 2025-02-12T13:33:10.664Z)
Latitude
32.00207°
Longitude
-111.45284°
Altitude
167.614 km
Speed
7.81 km/s
True Right ascension
15h 38m 46s
True Declination
31° 50' 02"
Sunlit
Object was in daylight at epoch
Visualization orbit readout
Latitude
Unknown
Longitude
Unknown
Altitude
Unknown
Speed
Unknown
Apparent Right ascension
Unknown
Apparent Declination
Unknown
Sunlit
N/A
Visualization observer readout
Local Sidereal Time
12:07:06
Azimuth
Unknown
Elevation
Unknown
Doppler factor
Unknown
Orbital elements
Apogee altitude
167.969 km
Perigee altitude
163.107 km
Semi-major axis
6,543.675 km
Eccentricity
0.00037
Inclination
53.0251°
RAAN
82.5848°
Arg. of periapsis
40.3163°
True anomaly
98.27843°
Mean anomaly
98.2363°
Eccentric anomaly
98.25736°
Mean motion
4.10025 °/min
Orbital period
87.8 mins
BSTAR
0.0009904
Loading maneuver chart data...
Computing Atmospheric mass density...
Loading historical data...
Loading historical data...
Loading historical data...
Loading historical data...
Loading historical data...
Loading historical data...
Loading historical data...

Documentation

Showing up to 5 results
|